Doha, Qatar

4:40 PM +03 on April 28, 2017 (GMT +0300)
Doha International

Weather History for OTBD - August, 2012

Change the Weather History Date:

Wednesday, August 1, 2012

  Actual Average Record
Temperature  
Mean Temperature 102 °F -  
Max Temperature 112 °F 105 °F 116 °F (2015)
Min Temperature 91 °F 84 °F 84 °F (1996)
Cooling Degree Days 36    
Growing Degree Days 52 (Base 50)    
Moisture  
Dew Point 75 °F    
Average Humidity 47    
Maximum Humidity 71    
Minimum Humidity 15    
Precipitation  
Precipitation 0.00 in 0.00 in - ()
Sea Level Pressure  
Sea Level Pressure 29.45 in    
Wind  
Wind Speed 5 mph ()    
Max Wind Speed 13 mph    
Max Gust Speed -    
Visibility 4.9 miles    
Events      
Averages and records for this station are not official NWS values.
T = Trace of Precipitation, MM = Missing Value Source: Averaged Metar Reports

Daily Weather History Graph

Daily Weather History Graph

Search for Another Location

Airport or City:

Trip Planner

Search our weather history database for the weather conditions in past years. The results will help you decide how hot, cold, wet, or windy it might be!

Date:

Astronomy

Aug. 01, 2012 Rise Set
Actual Time 5:00 AM +03 6:18 PM +03
Civil Twilight 4:36 AM +03 6:43 PM +03
Nautical Twilight 4:07 AM +03 7:12 PM +03
Astronomical Twilight 3:36 AM +03 7:42 PM +03
Moon 5:37 PM +03 (8/1) 4:02 AM +03 (8/1)
Length of Visible Light 14h 06m
Length of Day
13h 17m
Waxing Gibbous, 99% of the Moon is Illuminated
Aug 1
Waxing Gibbous
Aug 2
Full
Aug 9
Last Quarter
Aug 17
New
Aug 24
First Quarter

Hourly Weather History & Observations

Time (+03) Temp. Heat Index Dew Point Humidity Pressure Visibility Wind Dir Wind Speed Gust Speed Precip Events Conditions
12:00 AM 96.8 °F 103.1 °F 69.8 °F 41% 29.44 in - ESE 3.5 mph - N/A   Clear
12:30 AM 96.8 °F 109.6 °F 75.2 °F 50% 29.42 in - SE 4.6 mph - N/A   Clear
1:00 AM 95.0 °F 109.7 °F 77.0 °F 56% 29.42 in - Variable 2.3 mph - N/A   Clear
1:30 AM 95.0 °F 107.4 °F 75.2 °F 53% 29.42 in - SSE 3.5 mph - N/A   Clear
2:00 AM 95.0 °F 109.7 °F 77.0 °F 56% 29.42 in - South 3.5 mph - N/A   Clear
2:30 AM 95.0 °F 112.2 °F 78.8 °F 59% 29.39 in - SW 4.6 mph - N/A   Clear
3:00 AM 94 °F - 79 °F 54% 29.41 in 6 mi WSW 4.6 mph - -   Clear
3:00 AM 93.2 °F 110.2 °F 78.8 °F 63% 29.39 in - WSW 4.6 mph - N/A   Clear
3:30 AM 93.2 °F 110.2 °F 78.8 °F 63% 29.42 in - South 4.6 mph - N/A   Clear
4:00 AM 93.2 °F 110.2 °F 78.8 °F 63% 29.42 in - South 4.6 mph - N/A   Clear
4:30 AM 93.2 °F 110.2 °F 78.8 °F 63% 29.42 in - South 3.5 mph - N/A   Clear
5:00 AM 93.2 °F 110.2 °F 78.8 °F 63% 29.44 in 5.0 mi SW 5.8 mph - N/A   Unknown
5:30 AM 93.2 °F 107.2 °F 77.0 °F 59% 29.44 in 5.0 mi SW 5.8 mph - N/A   Unknown
6:00 AM 95.0 °F 107.4 °F 75.2 °F 53% 29.44 in 3.7 mi SW 4.6 mph - N/A   Unknown
6:30 AM 95.0 °F 104.5 °F 73.4 °F 49% 29.47 in 3.7 mi WSW 4.6 mph - N/A   Unknown
7:00 AM 96.8 °F 105.1 °F 71.6 °F 44% 29.47 in 4.3 mi WSW 3.5 mph - N/A   Unknown
7:30 AM 98.6 °F 104.1 °F 68.0 °F 37% 29.47 in 4.3 mi SW 6.9 mph - N/A   Unknown
8:00 AM 98.6 °F 104.1 °F 68.0 °F 37% 29.47 in 4.3 mi SW 6.9 mph - N/A   Unknown
8:30 AM 102.2 °F 110.0 °F 69.8 °F 35% 29.50 in 4.3 mi Variable 2.3 mph - N/A   Unknown
9:00 AM 104 °F - 69 °F 24% 29.53 in 4 mi NW 5.8 mph - -   Widespread Dust
9:00 AM 104.0 °F 112.2 °F 69.8 °F 33% 29.50 in 4.3 mi NW 5.8 mph - N/A   Unknown
9:30 AM 105.8 °F 113.2 °F 68.0 °F 30% 29.50 in 4.3 mi WNW 4.6 mph - N/A   Unknown
10:00 AM 107.6 °F 113.2 °F 66.2 °F 26% 29.50 in 5.0 mi West 4.6 mph - N/A   Unknown
10:30 AM 109.4 °F 112.8 °F 62.6 °F 22% 29.50 in 5.0 mi NW 5.8 mph - N/A   Unknown
11:00 AM 109.4 °F 111.9 °F 60.8 °F 21% 29.50 in 5.0 mi North 9.2 mph - N/A   Unknown
11:30 AM 109.4 °F 111.9 °F 60.8 °F 21% 29.47 in 5.0 mi North 9.2 mph - N/A   Unknown
12:00 PM 111.2 °F 114.0 °F 60.8 °F 20% 29.47 in 5.0 mi North 10.4 mph - N/A   Unknown
12:30 PM 111.2 °F 119.2 °F 68.0 °F 25% 29.44 in 5.0 mi North 9.2 mph - N/A   Unknown
2:00 PM 105.8 °F 121.3 °F 75.2 °F 38% 29.44 in 5.0 mi NE 12.7 mph - N/A   Unknown
2:30 PM 107.6 °F 119.1 °F 71.6 °F 32% 29.44 in 5.6 mi NE 11.5 mph - N/A   Unknown
3:00 PM 109 °F - 63 °F 15% 29.44 in 6 mi NE 11.5 mph - -  
3:00 PM 109.4 °F 112.8 °F 62.6 °F 22% 29.42 in - NE 11.5 mph - N/A   Clear
3:30 PM 104.0 °F 118.9 °F 75.2 °F 40% 29.42 in - NE 10.4 mph - N/A   Clear
4:00 PM 104.0 °F 121.0 °F 77.0 °F 42% 29.42 in 5.6 mi ENE 8.1 mph - N/A   Unknown
4:30 PM 104.0 °F 124.4 °F 78.8 °F 45% 29.42 in 5.6 mi NE 6.9 mph - N/A   Unknown
5:00 PM 102.2 °F 124.9 °F 80.6 °F 50% 29.42 in 5.0 mi East 4.6 mph - N/A   Unknown
5:30 PM 102.2 °F 124.9 °F 80.6 °F 50% 29.42 in 4.3 mi East 4.6 mph - N/A   Unknown
6:00 PM 100.4 °F 122.7 °F 80.6 °F 53% 29.42 in 4.3 mi East 6.9 mph - N/A   Unknown
6:30 PM 98.6 °F 128.0 °F 84.2 °F 63% 29.42 in 4.3 mi East 6.9 mph - N/A   Unknown
7:00 PM 96.8 °F 121.7 °F 82.4 °F 63% 29.44 in 5.0 mi ESE 5.8 mph - N/A   Unknown
7:30 PM 96.8 °F 121.7 °F 82.4 °F 63% 29.44 in 5.0 mi East 6.9 mph - N/A   Unknown
8:00 PM 96.8 °F 118.6 °F 80.6 °F 60% 29.44 in 5.6 mi SE 4.6 mph - N/A   Unknown
8:30 PM 98.6 °F 117.2 °F 78.8 °F 53% 29.44 in - SSE 4.6 mph - N/A   Clear
9:00 PM 98 °F - 82 °F 51% 29.46 in 6 mi South 4.6 mph - -   Clear
9:00 PM 98.6 °F 124.6 °F 82.4 °F 60% 29.44 in - South 4.6 mph - N/A   Clear
9:30 PM 96.8 °F 121.7 °F 82.4 °F 63% 29.47 in - East 3.5 mph - N/A   Clear
10:00 PM 96.8 °F 126.0 °F 84.2 °F 67% 29.47 in - NE 3.5 mph - N/A   Clear
10:30 PM 96.8 °F 126.0 °F 84.2 °F 67% 29.47 in - ENE 3.5 mph - N/A   Clear
11:00 PM 96.8 °F 126.0 °F 84.2 °F 67% 29.47 in - NE 12.7 mph - N/A   Clear
11:30 PM 95.0 °F 123.7 °F 84.2 °F 71% 29.47 in 5.0 mi North 5.8 mph - N/A   Unknown